Showing default

T.MICROSAT-2, 68433

Orbit data source: Space-Track

T.MICROSAT-2, 68433 is a Taiwanese payload satellite in SSO that was launched on Mon, 30 Mar 2026 UTC via an FALCON 9 launch vehicle from the Air Force Western Test Range (AFWTR). Payload-class satellites include a variety of spacecraft equipped with specific instruments for various scientific and technological missions. These include communications satellites like Starlink; space stations such as the ISS; scientific satellites like the Hubble; Earth observation satellites from companies like Planet Labs, Umbra, and HawkEye 360; GPS; miniature CubeSats for education and research; and military/defense satellites.

Loading next visibility...
Identifier
68433, 2026-067T
Orbit
SSO
Country
Flag of TWTW / TWN
Related business
Manufacturer
TRON
Mission
Operational spacecraft
Bus & Motor
CUBESAT 6U, Unknown motor
Mass
~10 kg wet, ~10 kg dry
Launch date (UTC)
2026-03-30 (3 months ago)
Launch vehicle
FALCON 9
Launch site
Air Force Western Test Range (AFWTR)
Object type
Payload
Rocket body
Debris
Shape & HBR
Unknown shape, 0.6 m
Radar Cross Section
Medium (>0.1 m² and <1 m²)

Expand to show TLE details & history
Last TLE update: 2 days ago

TLE from 2 days ago
0 T.MICROSAT-2
1 68433U 26067T   26171.42380403  .00004548  00000-0  23062-3 0  9993
2 68433  97.4571 129.7476 0007414  60.8272 299.3702 15.17420167 12421
Epoch: 2026-06-20T10:10Z
TLE epoch observation values (Epoch: 2026-06-20T10:10:16.668Z)
Latitude
-0.00006°
Longitude
68.53952°
Altitude
514.223 km
Speed
7.608 km/s
True Right ascension
08h 38m 59s
True Declination
0° 00' 00"
Sunlit
Object was in daylight at epoch
Visualization orbit readout
Latitude
Unknown
Longitude
Unknown
Altitude
Unknown
Speed
Unknown
Apparent Right ascension
Unknown
Apparent Declination
Unknown
Sunlit
N/A
Visualization observer readout
Local Sidereal Time
10:41:13
Azimuth
Unknown
Elevation
Unknown
Doppler factor
Unknown
Orbital elements
Apogee altitude
515.72 km
Perigee altitude
505.505 km
Semi-major axis
6,888.749 km
Eccentricity
0.00074
Inclination
97.4571°
RAAN
129.7476°
Arg. of periapsis
60.8272°
True anomaly
299.29613°
Mean anomaly
299.3702°
Eccentric anomaly
299.33317°
Mean motion
3.79606 °/min
Orbital period
94.84 mins
BSTAR
0.00023062
Loading maneuver chart data...
Computing Atmospheric mass density...
Loading historical data...
Loading historical data...
Loading historical data...
Loading historical data...
Loading historical data...
Loading historical data...
Loading historical data...

Documentation

Showing up to 5 results
|